RH
34 33 31 29 28 28 28 28 28 27 26 25 26 28 32 36 41 46 49 52 54 55 56 56 56 56 55 55 55 55 54 53 53 52 51 49 48 47 47 47 46 44
35 33 30 29 28 28 28 28 27 26 26 27 30 35 40 44 48 51 52 53 53 53 54 54 54 54 54 54 54 54 54 54 54 55 55 55 55 56 57 57 57 57
35 33 31 29 29 29 28 27 26 26 27 31 36 41 45 48 47 45 43 41 40 41 42 44 46 48 49 50 52 53 54 57 60 62 64 66 68 69 69 69 69 68
37 35 32 31 30 29 27 26 25 27 30 36 42 46 45 41 35 29 27 26 27 30 34 40 44 48 52 55 59 62 66 70 72 74 75 76 76 75 74 72 71 69
39 37 34 32 30 28 27 26 27 31 36 41 45 42 34 25 20 18 18 20 23 28 34 41 48 53 60 65 69 73 76 78 78 77 76 75 72 69 67 64 61 58
42 38 35 31 29 28 27 28 32 37 42 44 38 28 19 15 15 16 18 20 23 28 34 42 48 54 60 65 68 70 71 71 68 65 63 61 57 54 52 48 45 41
43 39 34 31 29 28 28 32 38 43 44 37 25 16 14 14 15 17 18 20 22 26 31 37 42 47 51 54 57 58 56 53 51 48 45 43 41 39 38 36 34 32
43 38 33 30 29 28 31 36 42 45 39 25 15 13 14 15 16 18 19 20 22 24 27 30 33 37 40 42 43 43 41 39 38 37 35 35 34 33 34 34 34 33
43 37 32 30 29 29 33 38 43 41 28 15 12 14 14 15 16 18 19 21 22 23 24 26 28 30 32 33 34 34 34 34 34 34 34 34 34 35 36 37 37 37
42 37 32 30 29 31 35 40 42 33 18 12 13 14 14 16 17 18 20 22 22 23 24 25 26 27 29 30 31 32 32 33 35 35 36 36 37 38 39 39 40 42
42 37 32 30 30 32 36 41 39 25 13 12 14 13 14 15 16 18 20 21 23 23 24 24 25 26 28 30 32 33 34 35 36 37 37 38 40 42 43 45 48 52
43 36 32 30 30 32 36 40 34 19 11 12 13 14 15 15 16 18 19 21 22 23 23 24 25 26 27 30 32 34 35 36 37 38 40 42 45 47 50 54 59 64
43 36 32 31 30 32 36 39 30 16 11 13 14 15 16 15 16 17 18 19 20 21 22 22 23 25 27 30 33 34 36 37 39 42 46 49 51 54 58 63 69 73
42 36 33 31 30 32 37 38 27 14 11 14 14 16 17 17 17 17 18 19 19 20 21 21 23 26 29 32 34 36 40 42 45 49 52 54 56 59 64 70 75 75
42 36 33 32 31 33 38 37 25 13 11 14 15 17 18 19 20 20 20 21 21 22 23 25 27 30 33 36 39 43 47 49 52 55 57 58 60 64 71 77 79 77
42 36 33 32 32 34 39 37 24 13 12 15 16 18 20 22 24 25 25 26 27 28 30 32 34 37 40 43 47 50 53 55 59 61 60 60 64 69 75 79 79 77
42 36 34 33 33 35 40 38 24 13 12 15 16 18 21 25 28 30 31 32 33 35 37 39 42 46 48 51 57 61 63 63 62 60 59 61 66 71 74 75 74 74
42 37 35 34 34 37 42 38 25 13 12 15 17 19 22 27 31 34 35 37 38 41 44 47 52 56 59 64 70 73 72 67 60 56 59 65 71 74 74 74 74 73
43 38 36 35 35 37 42 39 26 15 13 15 17 19 23 28 33 36 39 40 42 45 49 56 63 67 69 73 77 78 73 64 57 57 64 71 75 77 77 77 76 75
44 39 37 35 35 37 42 40 28 16 14 16 17 19 23 29 35 39 41 43 44 47 53 62 70 73 73 76 79 78 71 62 58 62 70 77 80 81 81 80 79 82
45 39 37 36 36 38 43 42 30 18 15 16 17 19 23 28 36 41 43 45 46 50 57 67 74 74 73 77 81 79 69 61 62 68 75 81 84 85 83 81 84 89
46 40 38 37 36 39 44 43 32 20 17 17 18 19 22 28 36 42 45 46 49 54 61 69 75 75 75 79 84 80 69 62 65 72 78 84 87 87 84 84 90 95
46 41 39 38 37 40 44 44 33 22 18 18 19 19 22 27 36 44 48 48 51 58 64 69 76 80 79 81 85 80 70 65 69 75 81 87 88 87 85 88 95 98
47 41 40 39 39 40 44 44 35 23 18 20 20 20 22 26 35 45 51 51 55 61 65 71 79 84 82 82 85 82 73 68 71 77 83 87 86 84 85 90 97 97
47 42 41 40 39 40 44 45 36 24 19 21 22 20 21 25 34 44 52 55 58 61 66 72 79 84 84 82 84 84 77 71 73 78 83 84 82 81 85 92 98 91
47 42 41 41 39 40 44 45 37 25 21 23 24 22 21 24 33 44 52 57 59 61 67 73 78 83 85 83 83 85 81 75 75 80 82 81 80 80 84 92 95 83
Wind_Speed
77 78 79 80 82 84 86 87 88 89 89 88 86 84 82 80 78 77 77 77 77 78 78 79 79 80 80 80 81 81 81 81 81 81 82 82 82 82 82 82 83 83
77 79 80 82 84 86 88 89 89 88 87 85 84 82 80 79 79 79 79 79 79 79 79 79 80 80 80 80 80 80 79 79 79 79 79 78 79 79 79 79 80 80
78 79 81 83 86 88 89 89 89 87 86 84 83 82 81 81 81 81 81 80 79 78 77 77 77 76 76 75 75 75 74 74 73 73 73 73 73 74 74 75 75 75
78 80 82 85 87 89 89 89 88 86 84 83 82 83 83 83 82 81 79 77 75 73 72 71 70 70 69 68 68 67 67 67 67 67 68 68 68 69 69 70 70 71
79 81 83 86 88 89 89 88 86 84 83 83 83 83 83 81 79 76 73 71 69 67 65 65 64 63 63 62 62 61 61 62 62 63 63 63 64 64 65 66 66 67
80 82 84 87 89 89 88 87 85 83 83 83 83 82 80 76 73 70 68 66 64 62 61 60 60 59 58 58 58 58 58 59 59 60 60 60 61 61 62 63 63 64
82 83 85 88 89 89 87 85 84 83 83 83 81 78 74 70 68 66 64 63 61 59 58 57 57 56 56 56 55 55 56 56 56 57 57 57 58 58 58 59 59 59
83 84 86 88 89 88 86 84 83 83 83 82 78 73 69 66 64 63 61 60 58 56 55 55 54 54 54 54 53 53 53 53 54 54 54 54 54 54 54 55 56 57
83 85 86 88 88 87 85 83 82 82 82 78 73 69 66 64 62 60 58 56 54 53 52 52 51 51 51 51 50 50 50 50 50 50 50 50 50 51 52 54 55 56
83 84 86 87 88 86 84 82 81 81 79 74 68 65 63 61 59 56 54 52 50 50 49 49 48 48 48 47 47 47 47 46 46 47 47 47 48 50 52 54 55 57
83 84 86 87 86 85 83 81 80 79 75 69 64 61 59 57 54 52 50 48 47 46 46 46 45 45 44 44 43 43 43 43 44 45 46 47 49 51 53 54 56 58
83 84 85 86 85 84 82 80 79 77 71 65 61 58 55 53 50 48 46 45 44 44 43 43 42 41 41 40 40 40 41 41 43 44 46 48 50 52 54 56 58 60
82 84 85 85 85 83 81 79 77 74 68 61 57 54 51 49 47 45 44 42 41 41 40 39 39 38 37 37 37 38 39 41 43 45 47 49 51 53 55 57 59 62
82 83 84 84 84 82 80 77 76 72 65 58 54 51 48 46 45 43 41 40 39 37 36 35 34 34 34 35 36 38 40 42 45 47 49 50 52 54 55 57 60 62
82 83 84 84 83 81 78 76 74 70 62 56 52 49 46 44 42 40 39 37 36 35 33 33 32 32 33 35 37 39 42 45 46 48 50 51 53 54 55 57 59 61
82 83 83 83 82 80 77 75 73 68 60 54 51 47 45 43 41 39 37 35 34 33 32 32 32 33 35 37 39 42 44 46 47 49 51 51 52 53 54 55 57 59
82 82 83 82 81 79 76 74 71 66 59 53 49 46 44 42 41 39 37 36 34 33 32 32 33 34 37 39 41 44 46 47 48 49 50 50 50 51 53 55 57 58
81 82 82 81 80 78 75 72 70 65 57 52 48 45 43 42 41 39 38 36 35 34 33 33 34 36 39 40 42 46 48 49 49 48 48 48 49 51 53 55 57 58
81 81 81 80 79 77 74 71 69 64 57 51 47 44 42 41 41 39 38 37 36 35 34 34 35 38 40 42 44 46 48 49 48 47 47 48 50 52 54 56 57 58
81 81 80 80 79 76 73 71 68 64 57 51 47 43 41 41 40 39 38 38 37 36 35 35 36 40 42 43 45 47 48 48 48 47 48 49 51 52 54 56 57 57
81 81 80 79 78 76 72 70 67 63 57 51 47 43 41 40 40 39 38 38 38 37 36 36 38 41 43 44 45 47 48 48 47 47 48 49 51 52 54 55 55 56
81 81 80 79 77 75 72 69 66 63 58 51 47 43 41 40 40 39 38 38 38 38 37 37 39 42 44 45 46 48 48 47 47 47 48 49 51 52 53 54 54 55
81 81 80 79 77 74 71 68 65 63 58 52 47 43 41 40 39 39 38 38 38 38 38 38 40 43 45 45 46 48 48 47 47 47 48 49 50 51 52 52 53 54
81 81 80 78 76 74 70 67 64 62 58 52 47 43 41 40 39 38 38 38 38 39 39 39 40 43 45 46 47 48 48 47 47 47 47 49 50 50 50 51 51 52
82 82 80 79 76 73 70 66 64 61 58 53 48 44 41 39 39 38 37 37 38 39 39 40 40 42 45 46 47 48 48 47 46 46 47 48 49 48 48 49 50 50
82 82 81 79 76 73 69 66 63 60 57 53 48 44 41 39 39 38 37 37 38 39 40 40 40 41 44 46 47 48 48 47 47 47 47 48 48 48 47 48 48 48
Wind_Direction
310 310 309 309 308 308 308 308 307 306 306 305 303 302 300 298 296 294 291 289 287 286 284 282 281 280 279 278 277 277 277 276 276 276 275 275 274 274 273 272 272 271
311 310 310 310 310 311 311 310 309 308 307 306 304 303 301 299 297 295 293 291 289 287 285 283 282 281 280 279 278 277 277 276 276 275 274 274 273 272 272 271 271 270
312 311 312 312 313 313 313 312 311 310 308 307 305 304 302 300 298 296 294 292 290 288 286 284 283 281 280 279 278 277 276 276 275 274 273 272 272 271 270 270 270 270
313 313 314 315 315 315 314 313 312 311 309 308 306 305 303 301 299 297 295 293 291 289 287 285 284 282 281 279 278 277 276 275 274 273 272 271 271 270 270 270 270 270
315 315 316 317 317 316 315 314 313 312 310 309 307 306 304 302 300 298 296 294 292 290 288 286 284 283 281 280 278 277 275 274 273 272 271 271 270 270 270 270 270 270
316 317 318 318 318 317 316 315 314 312 311 310 308 307 305 303 301 299 297 295 293 291 289 287 285 283 281 280 278 277 275 274 273 272 271 271 270 270 270 271 271 271
318 319 319 319 319 318 317 316 315 313 312 311 310 308 306 304 302 300 298 296 294 292 289 287 285 283 281 280 278 277 275 274 273 272 272 271 271 271 272 272 272 273
319 320 321 321 320 319 318 317 316 315 314 313 311 309 307 305 303 301 298 296 294 292 289 287 285 283 281 280 278 276 275 274 273 272 272 272 272 273 273 274 275 275
320 321 322 322 321 320 319 317 317 316 315 314 312 310 308 307 304 302 299 297 295 292 290 287 285 283 281 280 278 276 274 273 273 273 273 273 274 275 276 277 278 279
321 322 323 323 322 321 319 318 318 317 316 314 312 311 310 308 306 303 301 298 296 293 291 288 286 284 281 279 277 276 275 274 274 274 275 277 278 279 280 281 281 281
322 323 323 323 322 321 320 319 319 319 317 315 313 312 311 309 308 305 302 300 297 295 292 289 287 284 282 279 277 276 276 276 276 277 279 281 282 282 283 283 283 283
323 324 324 324 323 322 321 320 320 320 317 315 313 313 312 311 309 307 304 301 298 296 293 291 288 285 282 279 277 277 278 278 280 281 283 283 284 284 285 285 285 285
324 324 325 325 323 322 322 321 321 320 318 315 313 313 312 311 310 308 306 303 300 297 295 292 290 286 283 281 280 280 281 282 283 284 285 286 286 287 287 288 288 288
324 325 325 325 324 323 322 322 322 321 318 315 314 313 312 311 310 309 307 305 303 300 297 294 291 288 285 283 283 283 284 285 286 287 288 288 289 290 291 291 290 289
325 325 326 326 325 324 323 323 323 322 318 315 313 312 312 311 311 310 308 306 304 302 299 296 293 290 287 286 286 286 287 288 289 290 291 292 293 293 293 293 292 291
325 326 327 326 325 324 323 324 324 322 318 314 312 311 311 311 310 309 308 306 304 302 300 298 295 293 291 290 290 289 290 291 292 293 294 294 296 296 295 293 292 292
326 327 327 327 326 324 324 324 324 322 318 313 311 309 309 310 309 308 307 305 303 302 300 299 297 295 293 292 292 292 293 294 295 295 297 298 298 297 296 295 294 294
326 327 328 327 326 325 324 324 324 322 317 312 309 308 307 308 308 307 306 304 303 302 301 300 298 295 294 294 294 294 295 297 298 299 301 302 301 300 299 298 298 297
327 328 328 328 326 325 324 324 324 323 318 312 308 306 305 306 306 306 305 304 303 302 302 301 299 296 296 296 296 296 297 298 301 304 305 305 303 302 302 301 300 300
327 328 329 328 327 325 324 324 324 322 318 311 307 304 303 303 304 304 303 303 302 302 302 301 299 297 297 297 298 298 299 301 305 307 307 307 306 304 304 303 304 303
328 329 329 328 327 326 324 324 323 322 318 311 306 303 300 300 301 302 302 301 301 301 301 301 299 298 298 299 300 300 301 304 307 309 308 308 307 306 306 307 307 306
328 329 329 329 328 326 324 324 323 321 318 312 306 301 298 298 299 300 300 300 299 300 300 301 300 300 300 301 301 301 303 306 309 310 309 309 308 308 309 310 310 308
328 329 329 329 328 326 324 323 322 321 318 312 306 300 297 295 296 297 298 298 298 298 300 301 301 301 301 302 302 302 305 308 310 311 311 310 309 310 312 313 312 310
328 329 329 329 328 326 325 323 322 320 317 313 306 300 295 293 294 295 296 296 297 298 299 301 302 301 301 302 303 304 306 310 312 312 312 311 311 313 315 315 314 312
329 329 329 329 328 327 325 323 322 320 317 313 307 300 295 291 292 293 295 295 296 297 300 301 302 302 302 302 304 305 307 311 313 314 313 312 313 315 317 317 316 314
329 329 329 329 328 327 325 323 321 320 317 313 308 301 295 291 290 292 293 294 295 297 300 301 303 303 302 303 305 306 309 312 314 315 315 314 315 317 319 319 318 316